Tracking 34717 objects as of 14-Jul-2026
HD Live streaming from Space Station
objects crossing your sky now

CZ-4 DEB

Track CZ-4 DEB now!
10-day predictions


NORAD ID: 20912
Int'l Code: 1990-081BV
Perigee: 766.7 km
Apogee: 784.5 km
Inclination: 98.5 °
Period: 100.2 minutes
Semi major axis: 7146 km
RCS: 0.0059 m2 (small)
Launch date: September 3, 1990
Source: People's Republic of China (PRC)
Launch site: Taiyaun Space Center, China (TSC)

Note: This is SATELLITE DEBRIS
Your satellite tracking list
Your tracking list is empty




NASA's NSSDC Master Catalog

Two Line Element Set (TLE):
1 20912U 90081BV  26194.47831541  .00000817  00000-0  29033-3 0  9993
2 20912  98.5436 194.2202 0012400 183.9170 328.2153 14.36990033853331
Source of the keplerian elements: AFSPC